Location: Godiavel Galaoual
(15.2485°N, 12.6604°W)
Time: 14:29:34
(UTC+00:00)

CZ-3 Stage 3 - Pass Details

Date: 27 February 2020
Orbit: 231 x 15966 km, 30.8° (Epoch: 29 March)

Event Time Altitude Azimuth Distance (km) Brightness Sun altitude
Rises 21:31:38 0° 227° (SW) 3,413 5.9 -37.8°
Reaches altitude 10° 21:33:09 10° 223° (SW) 2,894 5.3 -38.2°
Enters shadow 21:39:27 67° 160° (SSE) 2,299 4.1 -39.7°
Exits shadow 22:16:05 16° 63° (ENE) 12,466 7.7 -48.5°
Drops below altitude 10° 22:29:23 10° 63° (ENE) 15,121 8.2 -51.7°
Sets 23:05:51 0° 64° (ENE) 20,020 9.0 -60.4°
